$Date,$Time,DM0201B,DM0203B,DM0205B,DM0207B,DM0209B
12/07/98,00:00:01,130,351,-9,202,949
12/07/98,00:05:01,136,351,-9,193,949
12/07/98,00:10:01,140,339,-9,198,949
12/07/98,00:15:01,140,355,-9,204,949
12/07/98,00:20:01,103,354,-9,208,949
12/07/98,00:25:01,125,327,-8,257,949
12/07/98,00:30:01,104,348,-9,241,949
12/07/98,00:35:01,115,338,-9,312,949
12/07/98,00:40:01,84,324,-9,241,949
12/07/98,00:45:01,123,315,-9,233,949
12/07/98,00:50:01,105,336,-9,222,949
12/07/98,00:55:01,114,336,-9,248,949
12/07/98,01:00:01,93,333,-8,213,949
12/07/98,01:05:01,112,345,-9,224,949
12/07/98,01:10:01,100,345,-9,242,949
12/07/98,01:15:01,128,324,-9,288,949
12/07/98,01:20:01,112,347,-9,271,949
12/07/98,01:25:01,134,323,-8,288,949
12/07/98,01:30:01,92,319,-8,264,949
12/07/98,01:35:01,108,328,-8,251,949
12/07/98,01:40:01,120,344,-8,235,949
12/07/98,01:45:01,80,322,-8,210,949
12/07/98,01:50:01,82,340,-8,213,949
12/07/98,01:55:01,75,343,-8,225,949
12/07/98,02:00:01,107,330,-8,210,949
12/07/98,02:05:01,99,343,-8,225,949
12/07/98,02:10:01,115,343,-8,231,949
12/07/98,02:15:01,78,345,-8,195,949
12/07/98,02:20:01,97,330,-8,201,949
12/07/98,02:25:01,118,344,-8,230,949
12/07/98,02:30:01,112,330,-8,249,949
12/07/98,02:35:01,110,341,-8,251,949
12/07/98,02:40:01,55,314,-8,240,949
12/07/98,02:45:01,75,310,-8,258,949
12/07/98,02:50:01,85,301,-8,239,949
12/07/98,02:55:01,71,297,-8,231,949
12/07/98,03:00:01,106,316,-8,243,949
12/07/98,03:05:01,77,300,-8,283,949
12/07/98,03:10:01,105,328,-8,249,949
12/07/98,03:15:01,73,329,-8,239,949
12/07/98,03:20:01,49,312,-8,211,949
12/07/98,03:25:01,122,340,-8,206,949
12/07/98,03:30:01,60,348,-8,198,949
12/07/98,03:35:01,75,338,-8,221,949
12/07/98,03:40:01,85,342,-8,228,949
12/07/98,03:45:01,96,339,-8,273,949
12/07/98,03:50:01,63,314,-8,257,949
12/07/98,03:55:01,43,346,-8,254,949
12/07/98,04:00:01,64,329,-8,256,949
12/07/98,04:05:01,34,358,-8,248,949
12/07/98,04:10:01,87,337,-7,252,949
12/07/98,04:15:01,65,1,-7,257,949
12/07/98,04:20:01,80,352,-7,228,949
12/07/98,04:25:01,89,349,-8,225,949
12/07/98,04:30:01,76,349,-8,204,949
12/07/98,04:35:01,83,352,-8,202,949
12/07/98,04:40:01,60,337,-8,195,949
12/07/98,04:45:01,87,352,-8,193,949
12/07/98,04:50:01,56,349,-8,182,949
12/07/98,04:55:01,73,342,-8,180,949
12/07/98,05:00:01,70,1,-8,192,949
12/07/98,05:05:01,76,335,-8,213,949
12/07/98,05:10:01,91,347,-8,219,949
12/07/98,05:15:01,75,334,-7,239,949
12/07/98,05:20:01,114,354,-7,632,949
12/07/98,05:25:01,112,341,-6,408,949
12/07/98,05:30:01,124,313,-5,707,949
12/07/98,05:35:01,157,313,-5,361,949
12/07/98,05:40:01,129,318,-6,259,949
12/07/98,05:45:01,142,328,-7,232,949
12/07/98,05:50:01,115,316,-7,242,949
12/07/98,05:55:01,77,317,-7,242,949
12/07/98,06:00:01,46,324,-7,238,949
12/07/98,06:05:01,37,323,-7,234,949
12/07/98,06:10:01,40,1,-7,208,949
12/07/98,06:15:01,41,7,-7,166,949
12/07/98,06:20:01,50,355,-7,145,949
12/07/98,06:25:01,53,347,-7,171,949
12/07/98,06:30:01,32,7,-7,172,949
12/07/98,06:35:01,33,7,-7,156,949
12/07/98,06:40:01,47,7,-8,126,949
12/07/98,06:45:01,68,2,-8,117,949
12/07/98,06:50:01,55,13,-8,138,949
12/07/98,06:55:01,57,1,-8,136,949
12/07/98,07:00:01,82,12,-8,120,949
12/07/98,07:05:01,87,4,-8,106,949
12/07/98,07:10:01,85,12,-8,123,949
12/07/98,07:15:01,68,12,-8,130,949
12/07/98,07:20:01,78,12,-8,114,949
12/07/98,07:25:01,86,13,-8,108,949
12/07/98,07:30:01,79,2,-9,102,949
12/07/98,07:35:01,80,4,-9,89,949
12/07/98,07:40:01,80,4,-9,79,949
12/07/98,07:45:01,58,6,-9,77,949
12/07/98,07:50:01,58,18,-9,79,949
12/07/98,07:55:01,81,5,-9,79,949
12/07/98,08:00:01,80,5,-9,75,949
12/07/98,08:05:01,78,11,-9,73,949
12/07/98,08:10:01,67,1,-9,73,949
12/07/98,08:15:01,75,1,-9,73,949
12/07/98,08:20:01,65,6,-9,71,949
12/07/98,08:25:01,78,356,-9,67,949
12/07/98,08:30:01,85,2,-9,63,949
12/07/98,08:35:01,80,6,-9,61,949
12/07/98,08:40:01,69,6,-9,59,949
12/07/98,08:45:01,69,6,-9,57,949
12/07/98,08:50:01,59,1,-9,53,949
12/07/98,08:55:01,71,14,-9,53,949
12/07/98,09:00:01,70,14,-9,51,949
12/07/98,09:05:01,60,2,-9,47,949
12/07/98,09:10:01,68,3,-9,49,949
12/07/98,09:15:01,78,1,-9,49,949
12/07/98,09:20:01,81,5,-9,49,949
12/07/98,09:25:01,68,18,-9,51,949
12/07/98,09:30:01,93,1,-9,51,949
12/07/98,09:35:01,90,25,-9,49,949
12/07/98,09:40:01,86,15,-9,45,949
12/07/98,09:45:01,85,19,-9,45,949
12/07/98,09:50:01,79,359,-9,43,949
12/07/98,09:55:01,86,3,-9,43,949
12/07/98,10:00:01,76,1,-9,41,949
12/07/98,10:05:01,68,14,-9,41,949
12/07/98,10:10:01,74,14,-9,41,949
12/07/98,10:15:01,80,13,-9,41,949
12/07/98,10:20:01,90,12,-9,41,949
12/07/98,10:25:01,97,22,-9,41,949
12/07/98,10:30:01,54,14,-9,39,949
12/07/98,10:35:01,67,11,-9,37,949
12/07/98,10:40:01,62,22,-9,35,949
12/07/98,10:45:01,96,10,-9,41,949
12/07/98,10:50:01,70,38,-9,43,949
12/07/98,10:55:01,43,20,-9,41,949
12/07/98,11:00:01,37,42,-9,37,949
12/07/98,11:05:01,34,28,-9,35,949
12/07/98,11:10:01,1,25,-9,33,949
12/07/98,11:15:01,13,257,-9,37,949
12/07/98,11:20:01,62,200,-9,41,949
12/07/98,11:25:01,75,176,-10,41,949
12/07/98,11:30:01,10,156,-10,43,949
12/07/98,11:35:01,68,174,-10,45,949
12/07/98,11:40:01,62,176,-10,43,949
12/07/98,11:45:01,37,159,-10,39,949
12/07/98,11:50:01,36,133,-10,39,949
12/07/98,11:55:01,64,149,-10,39,949
12/07/98,12:00:01,58,172,-10,39,949
12/07/98,12:05:01,69,172,-10,37,949
12/07/98,12:10:01,55,172,-10,37,949
12/07/98,12:15:01,45,182,-10,37,949
12/07/98,12:20:01,69,170,-10,35,949
12/07/98,12:25:01,61,184,-10,35,949
12/07/98,12:30:01,80,174,-10,35,949
12/07/98,12:35:01,100,174,-10,35,949
12/07/98,12:40:01,115,174,-10,33,949
12/07/98,12:45:01,100,174,-10,35,949
12/07/98,12:50:01,81,174,-10,33,949
12/07/98,12:55:01,110,171,-10,31,949
12/07/98,13:00:01,103,171,-10,31,949
12/07/98,13:05:01,98,182,-10,31,949
12/07/98,13:10:01,122,168,-10,31,949
12/07/98,13:15:01,121,171,-10,31,949
12/07/98,13:20:01,114,176,-10,33,949
12/07/98,13:25:01,114,176,-10,33,949
12/07/98,13:30:01,122,176,-11,31,949
12/07/98,13:35:01,123,176,-11,33,949
12/07/98,13:40:01,103,176,-11,35,949
12/07/98,13:45:01,112,176,-11,35,949
12/07/98,13:50:01,125,176,-11,37,949
12/07/98,13:55:01,100,176,-11,39,949
12/07/98,14:00:01,94,176,-11,39,949
12/07/98,14:05:01,107,176,-11,39,949
12/07/98,14:10:01,109,177,-11,39,949
12/07/98,14:15:01,108,177,-11,39,949
12/07/98,14:20:01,110,177,-11,39,949
12/07/98,14:25:01,108,177,-11,37,949
12/07/98,14:30:01,107,179,-11,39,949
12/07/98,14:35:01,97,179,-11,39,949
12/07/98,14:40:01,102,169,-11,39,949
12/07/98,14:45:01,82,183,-11,41,949
12/07/98,14:50:01,88,180,-11,41,949
12/07/98,14:55:01,129,180,-11,41,949
12/07/98,15:00:01,94,184,-11,43,949
12/07/98,15:05:01,126,184,-11,43,949
12/07/98,15:10:01,136,184,-11,45,949
12/07/98,15:15:01,124,177,-11,45,949
12/07/98,15:20:01,120,177,-11,45,949
12/07/98,15:25:01,105,177,-11,45,949
12/07/98,15:30:01,95,177,-11,47,949
12/07/98,15:35:01,111,177,-11,49,949
12/07/98,15:40:01,119,177,-11,53,949
12/07/98,15:45:01,86,177,-11,59,949
12/07/98,15:50:01,111,169,-11,67,949
12/07/98,15:55:01,121,178,-11,71,949
12/07/98,16:00:01,93,193,-11,71,949
12/07/98,16:05:01,102,181,-11,71,949
12/07/98,16:10:01,99,180,-11,71,949
12/07/98,16:15:01,90,174,-11,71,949
12/07/98,16:20:01,111,188,-11,75,949
12/07/98,16:25:01,122,178,-11,73,949
12/07/98,16:30:01,121,178,-11,73,949
12/07/98,16:35:01,130,168,-11,81,949
12/07/98,16:40:01,150,180,-11,87,949
12/07/98,16:45:01,108,178,-11,87,949
12/07/98,16:50:01,125,178,-11,99,949
12/07/98,16:55:01,110,178,-11,101,949
12/07/98,17:00:01,104,182,-11,99,949
12/07/98,17:05:01,92,178,-11,97,949
12/07/98,17:10:01,168,180,-11,89,949
12/07/98,17:15:01,150,180,-11,85,949
12/07/98,17:20:01,168,188,-11,83,949
12/07/98,17:25:01,140,178,-11,89,949
12/07/98,17:30:01,167,182,-11,87,949
12/07/98,17:35:01,174,189,-11,85,949
12/07/98,17:40:01,152,189,-11,81,949
12/07/98,17:45:01,129,182,-11,77,949
12/07/98,17:50:01,142,182,-11,90,949
12/07/98,17:55:01,142,180,-11,98,949
12/07/98,18:00:01,169,180,-12,98,949
12/07/98,18:05:01,156,180,-11,96,949
12/07/98,18:10:01,207,180,-11,96,949
12/07/98,18:15:01,204,178,-12,96,949
12/07/98,18:20:01,184,178,-12,98,949
12/07/98,18:25:01,172,177,-12,98,949
12/07/98,18:30:01,187,177,-12,100,949
12/07/98,18:35:01,179,177,-12,106,949
12/07/98,18:40:01,179,177,-12,112,949
12/07/98,18:45:01,183,177,-12,118,949
12/07/98,18:50:01,156,177,-11,122,949
12/07/98,18:55:01,171,164,-11,120,949
12/07/98,19:00:01,158,174,-11,118,949
12/07/98,19:05:01,198,177,-11,118,949
12/07/98,19:10:01,184,176,-11,124,951
12/07/98,19:15:01,152,178,-11,133,951
12/07/98,19:20:01,170,177,-11,143,951
12/07/98,19:25:01,168,169,-11,139,951
12/07/98,19:30:01,220,175,-11,135,951
12/07/98,19:35:01,179,175,-11,137,951
12/07/98,19:40:01,206,163,-11,153,951
12/07/98,19:45:01,235,165,-11,164,951
12/07/98,19:50:01,274,170,-12,178,951
12/07/98,19:55:01,203,178,-12,170,951
12/07/98,20:00:01,280,173,-12,153,951
12/07/98,20:05:01,260,168,-12,135,951
12/07/98,20:10:01,244,169,-12,325,951
12/07/98,20:15:01,301,169,-11,354,951
12/07/98,20:20:01,257,178,-11,465,951
12/07/98,20:25:01,294,170,-11,483,951
12/07/98,20:30:01,287,170,-11,269,951
12/07/98,20:35:01,280,164,-11,341,951
12/07/98,20:40:01,222,180,-11,291,951
12/07/98,20:45:01,309,169,-11,462,951
12/07/98,20:50:01,262,151,-11,415,951
12/07/98,20:55:01,238,163,-11,333,951
12/07/98,21:00:01,377,173,-11,184,951
12/07/98,21:05:01,399,173,-11,474,951
12/07/98,21:10:01,360,165,-11,482,951
12/07/98,21:15:01,299,157,-11,429,951
12/07/98,21:20:01,371,168,-11,444,951
12/07/98,21:25:01,295,168,-11,450,951
12/07/98,21:30:01,287,154,-11,453,951
12/07/98,21:35:01,354,166,-11,458,951
12/07/98,21:40:01,350,166,-11,467,951
12/07/98,21:45:01,302,166,-11,469,951
12/07/98,21:50:01,298,166,-11,472,951
12/07/98,21:55:01,249,166,-11,478,951
12/07/98,22:00:01,356,167,-11,485,951
12/07/98,22:05:01,375,157,-10,505,951
12/07/98,22:10:01,297,157,-11,430,951
12/07/98,22:15:01,354,157,-10,388,951
12/07/98,22:20:01,358,158,-11,192,951
12/07/98,22:25:01,323,158,-10,504,951
12/07/98,22:30:01,333,158,-10,502,951
12/07/98,22:35:01,307,158,-10,509,951
12/07/98,22:40:01,342,158,-10,511,951
12/07/98,22:45:01,336,157,-10,510,951
12/07/98,22:50:01,390,168,-10,513,951
12/07/98,22:55:01,289,161,-10,516,951
12/07/98,23:00:01,350,161,-10,522,951
12/07/98,23:05:01,390,161,-10,526,951
12/07/98,23:10:01,337,161,-10,527,951
12/07/98,23:15:01,332,161,-10,535,951
12/07/98,23:20:01,419,161,-10,539,951
12/07/98,23:25:01,331,171,-10,539,951
12/07/98,23:30:01,366,161,-10,547,951
12/07/98,23:35:01,394,162,-10,545,951
12/07/98,23:40:01,430,157,-10,543,951
12/07/98,23:45:01,367,160,-10,550,951
12/07/98,23:50:01,386,160,-10,595,951
12/07/98,23:55:01,345,161,-10,596,951
12/08/98,00:00:01,407,161,-10,576,951
